FW8256 Weather Reports


Display with metric or nautical units.
time (UTC)temp
F
wind
direction
speed
MPH
gust
MPH
rain 1hr
in
rain 24hr
in
rain mn
in
humidity
%
barometer
mb
20260906204606 102 130 4.0 9.0 0.00 0.00 0.00 34 1008.7
20260906203059 102 180 3.0 8.0 0.00 0.00 0.00 32 1008.9
20260906201606 102 150 1.0 10.0 0.00 0.00 0.00 34 1009.1
20260906200051 102 113 3.0 7.0 0.00 0.00 0.00 34 1009.3
20260906194551 102 185 2.0 7.0 0.00 0.00 0.00 36 1009.5
20260906193048 101 154 3.0 8.0 0.00 0.00 0.00 37 1009.7
20260906191546 101 148 2.0 7.0 0.00 0.00 0.00 38 1009.9
20260906190045 101 174 4.0 9.0 0.00 0.00 0.00 39 1010.1
20260906184552 101 173 4.0 7.0 0.00 0.00 0.00 38 1010.3
20260906183042 100 158 1.0 7.0 0.00 0.00 0.00 40 1010.5
20260906181538 99 255 2.0 9.0 0.00 0.00 0.00 41 1010.7
20260906180055 99 161 2.0 7.0 0.00 0.00 0.00 43 1010.9
20260906174537 98 146 2.0 8.0 0.00 0.00 0.00 43 1011.2
20260906173034 98 117 3.0 7.0 0.00 0.00 0.00 43 1011.5
20260906171532 98 156 3.0 8.0 0.00 0.00 0.00 43 1011.7
20260906170029 97 123 2.0 6.0 0.00 0.00 0.00 45 1012.0
20260906164526 95 177 2.0 4.0 0.00 0.00 0.00 46 1012.1
20260906163023 93 156 2.0 6.0 0.00 0.00 0.00 48 1012.3
20260906161523 94 198 1.0 5.0 0.00 0.00 0.00 47 1012.3
20260906160015 94 244 2.0 6.0 0.00 0.00 0.00 48 1012.2
20260906154517 93 221 1.0 7.0 0.00 0.00 0.00 50 1012.1
20260906153011 93 277 2.0 6.0 0.00 0.00 0.00 50 1012.0
20260906151509 92 243 0.0 5.0 0.00 0.00 0.00 52 1012.1
20260906150003 91 260 1.0 4.0 0.00 0.00 0.00 54 1011.9
20260906144559 89 264 2.0 4.0 0.00 0.00 0.00 56 1011.9
20260906143058 88 246 1.0 7.0 0.00 0.00 0.00 57 1011.9
20260906141550 87 256 2.0 6.0 0.00 0.00 0.00 58 1011.9
20260906140049 85 252 1.0 4.0 0.00 0.00 0.00 59 1011.8
20260906134548 84 231 1.0 4.0 0.00 0.00 0.00 61 1011.7
20260906133049 82 233 1.0 5.0 0.00 0.00 0.00 63 1011.7
20260906131546 81 188 0.0 2.0 0.00 0.00 0.00 64 1011.6
20260906130045 80 360 0.0 2.0 0.00 0.00 0.00 65 1011.4
20260906124542 79 360 0.0 1.0 0.00 0.00 0.00 66 1011.3
20260906123040 79 360 0.0 2.0 0.00 0.00 0.00 65 1011.0
20260906121540 79 360 0.0 3.0 0.00 0.00 0.00 65 1010.9
20260906120036 80 360 0.0 2.0 0.00 0.00 0.00 64 1010.7
20260906114535 80 360 0.0 3.0 0.00 0.00 0.00 63 1010.7
20260906113037 80 360 0.0 4.0 0.00 0.00 0.00 62 1010.5
20260906111532 80 360 1.0 5.0 0.00 0.00 0.00 62 1010.2
20260906110031 80 360 1.0 4.0 0.00 0.00 0.00 62 1010.2
20260906104535 80 360 0.0 4.0 0.00 0.00 0.00 62 1010.1
20260906103029 80 360 1.0 3.0 0.00 0.00 0.00 62 1010.0
20260906101527 81 360 0.0 3.0 0.00 0.00 0.00 61 1010.0
20260906100027 81 360 1.0 3.0 0.00 0.00 0.00 61 1010.0
20260906094535 81 360 0.0 3.0 0.00 0.00 0.00 61 1009.9
20260906093033 82 360 0.0 2.0 0.00 0.00 0.00 60 1010.0
20260906091520 82 360 0.0 0.0 0.00 0.00 0.00 59 1010.0
20260906090020 82 360 0.0 0.0 0.00 0.00 0.00 59 1009.9
20260906084527 82 360 0.0 2.0 0.00 0.00 0.00 59 1009.9
20260906083019 82 360 0.0 3.0 0.00 0.00 0.00 59 1009.8
20260906081519 82 360 0.0 3.0 0.00 0.00 0.00 59 1009.7
20260906080024 82 360 0.0 2.0 0.00 0.00 0.00 58 1009.8
20260906074513 83 360 0.0 2.0 0.00 0.00 0.00 57 1009.7
20260906073113 83 360 0.0 2.0 0.00 0.00 0.00 57 1009.7
20260906071512 83 360 0.0 2.0 0.00 0.00 0.00 57 1009.7
20260906070010 83 360 0.0 2.0 0.00 0.00 0.00 57 1009.9
20260906064513 83 360 0.0 1.0 0.00 0.00 0.00 57 1009.8
20260906063005 84 360 0.0 1.0 0.00 0.00 0.00 55 1009.8
20260906061503 85 360 0.0 4.0 0.00 0.00 0.00 54 1009.8
20260906060002 85 360 1.0 3.0 0.00 0.00 0.00 54 1009.8
20260906054501 85 360 0.0 2.0 0.00 0.00 0.00 54 1009.7
20260906053059 86 360 0.0 2.0 0.00 0.00 0.00 53 1009.7
20260906051606 86 360 0.0 2.0 0.00 0.00 0.00 52 1009.5
20260906050049 87 360 1.0 2.0 0.00 0.00 0.00 51 1009.4
20260906044549 87 360 0.0 3.0 0.00 0.00 0.00 51 1009.4
20260906043032 87 360 0.0 2.0 0.00 0.00 0.00 51 1009.5
20260906041529 88 360 0.0 2.0 0.00 0.00 0.00 50 1009.6
20260906040031 88 360 0.0 5.0 0.00 0.00 0.00 50 1009.6
20260906034536 88 360 1.0 4.0 0.00 0.00 0.00 50 1009.6
20260906033029 88 360 1.0 4.0 0.00 0.00 0.00 51 1009.4
20260906031527 88 360 0.0 2.0 0.00 0.00 0.00 51 1009.3
20260906030027 89 360 0.0 2.0 0.00 0.00 0.00 50 1009.4
20260906024526 90 360 1.0 3.0 0.00 0.00 0.00 49 1009.2
20260906023026 91 360 1.0 4.0 0.00 0.00 0.00 48 1009.1
20260906021525 91 360 1.0 4.0 0.00 0.00 0.00 47 1008.9
20260906020025 91 360 1.0 3.0 0.00 0.00 0.00 46 1008.7
20260906014538 92 360 0.0 2.0 0.00 0.00 0.00 46 1008.6
20260906013024 92 360 0.0 1.0 0.00 0.00 0.00 46 1008.5
20260906011535 93 360 0.0 2.0 0.00 0.00 0.00 45 1008.2
20260906010023 94 360 0.0 3.0 0.00 0.00 0.00 43 1008.2
20260906004534 95 360 2.0 6.0 0.00 0.00 0.00 42 1008.1
20260906003034 97 176 1.0 7.0 0.00 0.00 0.00 40 1007.9
20260906001525 98 165 0.0 5.0 0.00 0.00 0.00 39 1007.9
20260906000021 98 155 2.0 7.0 0.00 0.00 0.00 38 1007.8
20260905234520 99 143 3.0 7.0 0.00 0.00 0.00 37 1007.7
20260905233020 99 187 2.0 7.0 0.00 0.00 0.00 37 1007.7
20260905231519 99 167 3.0 7.0 0.00 0.00 0.00 37 1007.6
20260905230018 100 142 2.0 7.0 0.00 0.00 0.00 36 1007.6
20260905224526 99 146 2.0 8.0 0.00 0.00 0.00 36 1007.7
20260905223015 99 127 5.0 11.0 0.00 0.00 0.00 36 1007.5
20260905221515 100 145 3.0 8.0 0.00 0.00 0.00 35 1007.6
20260905220015 100 151 4.0 8.0 0.00 0.00 0.00 36 1007.7
20260905214511 100 151 4.0 8.0 0.00 0.00 0.00 36 1007.9
20260905213009 99 145 4.0 10.0 0.00 0.00 0.00 36 1008.0
20260905211505 100 157 4.0 7.0 0.00 0.00 0.00 37 1008.2
20260905210009 100 133 4.0 9.0 0.00 0.00 0.00 37 1008.3